STARLINK-11565, 62912

Orbit data source: Space-Track

STARLINK-11565, 62912 is a payload satellite owned by SpaceX/Seattle (US) in LEO that was launched on Sat, 08 Feb 2025 UTC via an FALCON 9 launch vehicle from the Air Force Eastern Test Range (AFETR). Payload-class satellites include a variety of spacecraft equipped with specific instruments for various scientific and technological missions. These include communications satellites like Starlink; space stations such as the ISS; scientific satellites like the Hubble; Earth observation satellites from companies like Planet Labs, Umbra, and HawkEye 360; GPS; miniature CubeSats for education and research; and military/defense satellites.

Loading next visibility...
Identifier
62912, 2025-027F
Orbit
LEO
Last TLE update
8 hours ago
Origin
Manufacturer
SpaceX/Seattle
Mission
Operational Commercial Communications
Bus & Motor
STARLINK V2M, Unknown motor
Mass
730 kg wet, ~700 kg dry
Launch date (UTC)
2025-02-08 (5 months ago)
Launch vehicle
FALCON 9
Launch site
Air Force Eastern Test Range (AFETR)
Object type
Payload
Rocket body
Debris
Shape & HBR
Box + 2 Pan, 29 m
Radar Cross Section
36.964 m², Large (>1 m²)

Expand to show TLE details & history

TLE from 8 hours ago
0 STARLINK-11565
1 62912U 25027F   25181.94436124  .00174249  00000-0  13316-2 0  9999
2 62912  43.0001  64.6975 0001378 258.2974 101.7739 15.70868313 23569
Epoch: 2025-06-30T22:39Z
TLE epoch observation values (Epoch: 2025-06-30T22:39:52.811Z)
Latitude
-0.00001°
Longitude
165.48054°
Altitude
356.375 km
Speed
7.697 km/s
True Right ascension
04h 18m 47s
True Declination
0° 00' 00"
Sunlit
Object was in daylight at epoch
Visualization orbit readout
Latitude
16.00439°
Longitude
-178.65233°
Altitude
355.69 km
Speed
7.699 km/s
Apparent Right ascension
05h 39m 08s
Apparent Declination
-11° 06' 40"
Sunlit
Object is in daylight
Visualization observer readout
Local Sidereal Time
18:01:27
Azimuth
11.271° NNE
Elevation
-60.774°
Doppler factor
1
Orbital elements
Apogee altitude
359.324 km
Perigee altitude
357.467 km
Semi-major axis
6,736.533 km
Eccentricity
0.00014
Inclination
43.0001°
RAAN
64.6975°
Arg. of periapsis
258.2974°
True anomaly
Unknown
Mean anomaly
101.7739°
Eccentric anomaly
Unknown
Mean motion
3.92544 °/min
Orbital period
91.71 mins
BSTAR
0.0013316
Loading maneuver chart data...
Loading SW <> Apogee altitude chart data...
Loading historical data...
Loading historical data...
Loading historical data...
Loading historical data...
Loading historical data...
Loading historical data...
Loading historical data...

STARLINK-11565 Visibility forecast

Observer location: undefined°, undefined°

Span
Click to sort rows by Start time (UTC) header in descending order
Start Az.
Max El. time (UTC)
Max El. Az.
Max El.
End time (UTC)
End Az.
4 mins2025-07-01 20:17:40.694Z238.89° WSW2025-07-01 20:18:40.694Z185.583° SSW43.938°2025-07-01 20:21:40.694Z73.722° E
4 mins2025-07-01 21:53:40.694Z298.019° NW2025-07-01 21:54:40.694Z335.87° NNW33.836°2025-07-01 21:57:40.694Z70.286° E
4 mins2025-07-01 23:29:40.694Z296.878° NW2025-07-01 23:31:40.694Z59.928° ENE39.468°2025-07-01 23:33:40.694Z95.288° ESE
4 mins2025-07-02 01:05:40.694Z257.64° W2025-07-02 01:07:40.694Z192.005° SSW24.001°2025-07-02 01:09:40.694Z149.636° SSE
|